Menominee, MI

5:47 PM CST on November 21, 2017 (GMT -0600)
Menominee-Marinette Twin County

Weather History for KMNM - December, 2010

Change the Weather History Date:

Wednesday, December 29, 2010

  Actual Average Record
Temperature  
Mean Temperature 25 °F -  
Max Temperature 35 °F 28 °F 50 °F (1979)
Min Temperature 15 °F 12 °F -18 °F (1976)
Degree Days  
Heating Degree Days 40    
Moisture  
Dew Point 19 °F    
Average Humidity 68    
Maximum Humidity 81    
Minimum Humidity 60    
Precipitation  
Precipitation 0.00 in - - ()
Sea Level Pressure  
Sea Level Pressure 29.79 in    
Wind  
Wind Speed 10 mph (SW)    
Max Wind Speed 20 mph    
Max Gust Speed 28 mph    
Visibility 5 miles    
Events      
Averages and records for this station are not official NWS values.
T = Trace of Precipitation, MM = Missing Value Source: NWS Daily Summary

Daily Weather History Graph

Daily Weather History Graph

Search for Another Location

Airport or City:

Trip Planner

Search our weather history database for the weather conditions in past years. The results will help you decide how hot, cold, wet, or windy it might be!

Date:

Astronomy

Dec. 29, 2010 Rise Set
Actual Time 7:29 AM CST 4:16 PM CST
Civil Twilight 6:55 AM CST 4:50 PM CST
Nautical Twilight 6:17 AM CST 5:27 PM CST
Astronomical Twilight 5:42 AM CST 6:03 PM CST
Moon 1:30 AM CST (12/29) 11:51 AM CST (12/29)
Length of Visible Light 9h 55m
Length of Day
8h 47m
Waning Crescent, 33% of the Moon is Illuminated
Dec 29
Waning Crescent
Jan 4
New
Jan 12
First Quarter
Jan 19
Full
Jan 26
Last Quarter

Hourly Weather History & Observations

Time (CST) Temp. Windchill Dew Point Humidity Pressure Visibility Wind Dir Wind Speed Gust Speed Precip Events Conditions
12:35 AM 17.6 °F 9.3 °F 10.4 °F 73% 29.88 in 4.0 mi WSW 5.8 mph - N/A   Clear
12:55 AM 17.6 °F 10.7 °F 10.4 °F 73% 29.88 in 4.0 mi WSW 4.6 mph - N/A   Clear
1:15 AM 17.6 °F 8.2 °F 8.6 °F 68% 29.88 in 4.0 mi WSW 6.9 mph - N/A   Clear
1:35 AM 17.6 °F 9.3 °F 8.6 °F 68% 29.88 in 4.0 mi WSW 5.8 mph - N/A   Clear
1:55 AM 17.6 °F 9.3 °F 8.6 °F 68% 29.88 in 4.0 mi WSW 5.8 mph - N/A   Clear
2:15 AM 17.6 °F 9.3 °F 8.6 °F 68% 29.89 in 4.0 mi WSW 5.8 mph - N/A   Clear
2:35 AM 15.8 °F 8.6 °F 8.6 °F 73% 29.88 in 5.0 mi WSW 4.6 mph - N/A   Clear
2:55 AM 17.6 °F 9.3 °F 8.6 °F 68% 29.87 in 5.0 mi WSW 5.8 mph - N/A   Clear
3:15 AM 17.6 °F 7.3 °F 8.6 °F 68% 29.87 in 5.0 mi WSW 8.1 mph - N/A   Clear
3:35 AM 17.6 °F 8.2 °F 8.6 °F 68% 29.86 in 5.0 mi WSW 6.9 mph - N/A   Clear
3:55 AM 17.6 °F 8.2 °F 8.6 °F 68% 29.86 in 5.0 mi SW 6.9 mph - N/A   Clear
4:15 AM 17.6 °F 8.2 °F 8.6 °F 68% 29.86 in 5.0 mi SW 6.9 mph - N/A   Clear
4:35 AM 17.6 °F 10.7 °F 8.6 °F 68% 29.86 in 5.0 mi WSW 4.6 mph - N/A   Clear
4:55 AM 17.6 °F 6.4 °F 8.6 °F 68% 29.85 in 5.0 mi SW 9.2 mph - N/A   Clear
5:35 AM 17.6 °F 6.4 °F 8.6 °F 68% 29.85 in 5.0 mi SW 9.2 mph - N/A   Clear
5:55 AM 17.6 °F 8.2 °F 8.6 °F 68% 29.84 in 5.0 mi SW 6.9 mph - N/A   Partly Cloudy
6:15 AM 19.4 °F 10.4 °F 10.4 °F 68% 29.84 in 5.0 mi WSW 6.9 mph - N/A   Clear
6:35 AM 19.4 °F 7.9 °F 10.4 °F 68% 29.84 in 5.0 mi SW 10.4 mph - N/A   Scattered Clouds
6:55 AM 21.2 °F 10.9 °F 10.4 °F 63% 29.83 in 5.0 mi SW 9.2 mph - N/A   Partly Cloudy
7:15 AM 19.4 °F 7.9 °F 10.4 °F 68% 29.82 in 5.0 mi SW 10.4 mph - N/A   Clear
7:55 AM 21.2 °F 9.5 °F 10.4 °F 63% 29.81 in 3.0 mi SW 11.5 mph - N/A   Clear
8:15 AM 21.2 °F 7.8 °F 12.2 °F 68% 29.81 in 4.0 mi SW 15.0 mph - N/A   Clear
8:35 AM 24.8 °F 11.9 °F 14.0 °F 64% 29.80 in 4.0 mi SW 16.1 mph 19.6 mph N/A   Clear
8:55 AM 26.6 °F 13.8 °F 15.8 °F 64% 29.79 in 4.0 mi SW 17.3 mph 24.2 mph N/A   Clear
9:15 AM 26.6 °F 14.3 °F 17.6 °F 69% 29.80 in 4.0 mi SW 16.1 mph 23.0 mph N/A   Clear
9:35 AM 28.4 °F 16.6 °F 17.6 °F 64% 29.80 in 4.0 mi SW 16.1 mph 20.7 mph N/A   Clear
9:55 AM 28.4 °F 16.6 °F 17.6 °F 64% 29.80 in 5.0 mi SW 16.1 mph 23.0 mph N/A   Mostly Cloudy
10:15 AM 28.4 °F 17.0 °F 17.6 °F 64% 29.79 in 5.0 mi SW 15.0 mph 20.7 mph N/A   Scattered Clouds
10:35 AM 30.2 °F 19.8 °F 17.6 °F 60% 29.79 in 5.0 mi SW 13.8 mph 20.7 mph N/A   Mostly Cloudy
10:55 AM 30.2 °F 18.9 °F 19.4 °F 64% 29.78 in 5.0 mi SW 16.1 mph 24.2 mph N/A   Overcast
11:15 AM 32.0 °F 20.1 °F 19.4 °F 60% 29.78 in 5.0 mi SW 19.6 mph 26.5 mph N/A   Mostly Cloudy
12:15 PM 33.8 °F 23.9 °F 21.2 °F 60% 29.75 in 5.0 mi SW 15.0 mph 24.2 mph N/A   Clear
12:35 PM 35.6 °F 25.2 °F 23.0 °F 60% 29.74 in 6.0 mi SSW 18.4 mph 23.0 mph N/A   Clear
12:55 PM 35.6 °F 25.2 °F 23.0 °F 60% 29.73 in 6.0 mi SW 18.4 mph 27.6 mph N/A   Clear
1:15 PM 35.6 °F 25.2 °F 23.0 °F 60% 29.73 in 5.0 mi SSW 18.4 mph 25.3 mph N/A   Clear
1:35 PM 35.6 °F 25.2 °F 23.0 °F 60% 29.73 in 5.0 mi SSW 18.4 mph 27.6 mph N/A   Clear
1:55 PM 35.6 °F 25.5 °F 24.8 °F 65% 29.72 in 6.0 mi SSW 17.3 mph 23.0 mph N/A   Clear
2:15 PM 35.6 °F 24.8 °F 24.8 °F 65% 29.72 in 6.0 mi SW 19.6 mph 24.2 mph N/A   Clear
2:35 PM 35.6 °F 25.5 °F 23.0 °F 60% 29.73 in 6.0 mi SW 17.3 mph 21.9 mph N/A   Clear
2:55 PM 35.6 °F 24.8 °F 24.8 °F 65% 29.73 in 7.0 mi SSW 19.6 mph 24.2 mph N/A   Clear
3:15 PM 35.6 °F 26.2 °F 24.8 °F 65% 29.73 in 6.0 mi SW 15.0 mph 20.7 mph N/A   Clear
3:35 PM 35.6 °F 27.1 °F 24.8 °F 65% 29.73 in 5.0 mi SSW 12.7 mph - N/A   Clear
3:55 PM 33.8 °F 26.4 °F 23.0 °F 65% 29.73 in 5.0 mi SSW 9.2 mph - N/A   Clear
4:15 PM 33.8 °F 27.7 °F 23.0 °F 65% 29.73 in 5.0 mi SSE 6.9 mph - N/A   Clear
4:35 PM 32.0 °F 24.8 °F 23.0 °F 69% 29.74 in 5.0 mi South 8.1 mph - N/A   Clear
4:55 PM 32.0 °F 23.6 °F 23.0 °F 69% 29.74 in 5.0 mi South 10.4 mph - N/A   Clear
5:35 PM 32.0 °F 24.2 °F 23.0 °F 69% 29.73 in 5.0 mi South 9.2 mph - N/A   Clear
5:55 PM 32.0 °F 24.2 °F 24.8 °F 75% 29.74 in 6.0 mi South 9.2 mph - N/A   Clear
6:15 PM 32.0 °F 24.8 °F 24.8 °F 75% 29.74 in 6.0 mi South 8.1 mph - N/A   Clear
6:35 PM 32.0 °F 23.6 °F 24.8 °F 75% 29.74 in 6.0 mi South 10.4 mph - N/A   Clear
6:55 PM 33.8 °F 25.3 °F 26.6 °F 75% 29.74 in 6.0 mi South 11.5 mph - N/A   Clear
7:15 PM 33.8 °F 26.4 °F 26.6 °F 75% 29.74 in 7.0 mi SSW 9.2 mph - N/A   Mostly Cloudy
7:35 PM 33.8 °F 25.3 °F 26.6 °F 75% 29.74 in 7.0 mi SSW 11.5 mph 17.3 mph N/A   Scattered Clouds
8:15 PM 33.8 °F 25.8 °F 26.6 °F 75% 29.74 in 6.0 mi SSW 10.4 mph - N/A   Clear
8:35 PM 33.8 °F 27.0 °F 26.6 °F 75% 29.75 in 6.0 mi SSW 8.1 mph - N/A   Partly Cloudy
9:15 PM 33.8 °F 26.4 °F 26.6 °F 75% 29.74 in 7.0 mi South 9.2 mph - N/A   Overcast
9:35 PM 35.6 °F 28.0 °F 26.6 °F 70% 29.74 in 7.0 mi SSW 10.4 mph - N/A   Overcast
9:55 PM 35.6 °F 29.2 °F 26.6 °F 70% 29.74 in 7.0 mi South 8.1 mph - N/A   Overcast
10:15 PM 35.6 °F 28.6 °F 28.4 °F 75% 29.74 in 7.0 mi SSW 9.2 mph - N/A   Overcast
10:35 PM 35.6 °F 28.6 °F 28.4 °F 75% 29.74 in 7.0 mi SSW 9.2 mph - N/A   Overcast
10:55 PM 35.6 °F 28.0 °F 28.4 °F 75% 29.74 in 4.0 mi SSW 10.4 mph - N/A   Overcast
11:15 PM 35.6 °F 28.6 °F 30.2 °F 81% 29.74 in 2.0 mi SSW 9.2 mph - N/A   Overcast
11:35 PM 35.6 °F 29.2 °F 30.2 °F 81% 29.73 in 1.8 mi SSW 8.1 mph - N/A   Overcast
11:55 PM 35.6 °F 28.0 °F 30.2 °F 81% 29.73 in 2.0 mi South 10.4 mph - N/A   Overcast